Regional Weather Roundup
Issued by NWS

Home | Current Version | Previous Version | Text Only | Print | Product List | Glossary Off
Versions: 1 2 3 4 5 6 7 8 9 10 11 12 13 14 15 16 17 18 19 20 21 22 23 24 25 26 27 28 29 30 31 32 33 34 35 36 37 38 39 40 41 42 43 44 45 46 47 48 49 50

000
ASUS43 KBIS 210610
RWRND

NORTH DAKOTA REGIONAL WEATHER ROUNDUP
NATIONAL WEATHER SERVICE BISMARCK ND
100 AM CDT TUE APR 21 2015

NOTE: "FAIR" INDICATES FEW OR NO CLOUDS BELOW 12,000 FEET WITH NO
SIGNIFICANT WEATHER AND/OR OBSTRUCTIONS TO VISIBILITY.


NDZ001>003-009>011-017-210700-
NORTHWEST NORTH DAKOTA

CITY           SKY/WX    TMP DP  RH WIND       PRES   REMARKS
WILLISTON      CLOUDY    36  18  48 NE8       29.83R
6HR MIN TEMP:  27; 6HR MAX TEMP:  53;

MINOT          CLOUDY    36  21  54 N9        29.81R
MINOT AFB      FAIR      36  23  58 N8        29.80R
$$

NDZ018>021-031>035-040>046-210700-
SOUTHWEST NORTH DAKOTA

CITY           SKY/WX    TMP DP  RH WIND       PRES   REMARKS
BISMARCK       MOCLDY    36  15  42 W7        29.78S
6HR MIN TEMP:  32; 6HR MAX TEMP:  51;

DICKINSON      CLEAR     32  15  49 W6        29.77F
GARRISON         N/A     39  20  46 NE13G22   29.78R
6HR MIN TEMP:  32; 6HR MAX TEMP:  50;

HETTINGER ARPT CLEAR     27  15  61 CALM      29.81F
$$

NDZ004>008-012>016-024-026-027-054-210700-
NORTHEAST NORTH DAKOTA

CITY           SKY/WX    TMP DP  RH WIND       PRES   REMARKS
GRAND FORKS    CLOUDY    34  27  75 NW18G30   29.63S
GRND FRKS AFB  CLOUDY    34  25  71 N16G23    29.63F
DEVILS LAKE    CLOUDY    34  23  64 N18G29    29.70S
$$

NDZ022-023-025-028>030-036>039-047>053-210700-
SOUTHEAST NORTH DAKOTA

CITY           SKY/WX    TMP DP  RH WIND       PRES   REMARKS
FARGO          CLOUDY    34  28  79 NW22G29   29.64S
6HR MIN TEMP:  34; 6HR MAX TEMP:  39; 6HR PCP: TRACE;

JAMESTOWN      FAIR      31  24  75 NW14      29.71S
$$



USA.gov is the U.S. government's official web portal to all federal, state and local government web resources and services.